Time,TemperatureF,DewpointF,PressureIn,WindDirection,WindDirectionDegrees,WindSpeedMPH,WindSpeedGustMPH,Humidity,HourlyPrecipIn,Conditions,Clouds,dailyrainin,SoftwareType,DateUTC
2013-06-18 00:10:00,81.6,75.0,29.93,SSE,156,11.0,20.0,81,0.00,,,0.00,weatherlink.com 1.10,2013-06-18 05:10:00,
2013-06-18 00:25:00,81.7,75.0,29.93,SSE,163,14.0,23.0,79,0.00,,,0.00,weatherlink.com 1.10,2013-06-18 05:25:00,
2013-06-18 00:40:00,81.6,75.0,29.93,SSE,163,9.0,21.0,79,0.00,,,0.00,weatherlink.com 1.10,2013-06-18 05:40:00,
2013-06-18 00:55:00,81.6,75.0,29.94,SSE,150,9.0,21.0,79,0.00,,,0.00,weatherlink.com 1.10,2013-06-18 05:55:00,
2013-06-18 01:10:00,81.6,75.0,29.93,South,170,19.0,22.0,79,0.00,,,0.00,weatherlink.com 1.10,2013-06-18 06:10:00,
2013-06-18 01:25:00,81.5,74.0,29.93,SSE,154,11.0,20.0,79,0.00,,,0.00,weatherlink.com 1.10,2013-06-18 06:25:00,
2013-06-18 01:40:00,81.5,75.0,29.93,South,169,10.0,20.0,80,0.00,,,0.00,weatherlink.com 1.10,2013-06-18 06:40:00,
2013-06-18 01:55:00,81.3,74.0,29.92,SSE,148,12.0,20.0,79,0.00,,,0.00,weatherlink.com 1.10,2013-06-18 06:55:00,
2013-06-18 02:10:00,81.2,75.0,29.92,SSE,165,8.0,19.0,81,0.00,,,0.00,weatherlink.com 1.10,2013-06-18 07:10:00,
2013-06-18 02:25:00,81.0,75.0,29.92,SSE,157,16.0,18.0,81,0.00,,,0.00,weatherlink.com 1.10,2013-06-18 07:25:00,
2013-06-18 02:40:00,81.0,75.0,29.91,SSE,152,13.0,20.0,81,0.00,,,0.00,weatherlink.com 1.10,2013-06-18 07:40:00,
2013-06-18 02:55:00,80.7,75.0,29.91,SSE,156,11.0,18.0,83,0.00,,,0.00,weatherlink.com 1.10,2013-06-18 07:55:00,
2013-06-18 03:10:00,80.7,75.0,29.90,South,179,8.0,22.0,82,0.00,,,0.00,weatherlink.com 1.10,2013-06-18 08:10:00,
2013-06-18 03:25:00,80.6,75.0,29.89,SSE,150,14.0,20.0,83,0.00,,,0.00,weatherlink.com 1.10,2013-06-18 08:25:00,
2013-06-18 03:40:00,80.5,75.0,29.89,SSE,166,13.0,21.0,82,0.00,,,0.00,weatherlink.com 1.10,2013-06-18 08:40:00,
2013-06-18 03:55:00,80.4,74.0,29.90,South,175,13.0,19.0,81,0.00,,,0.00,weatherlink.com 1.10,2013-06-18 08:55:00,
2013-06-18 04:10:00,80.3,74.0,29.90,SSE,152,11.0,16.0,81,0.00,,,0.00,weatherlink.com 1.10,2013-06-18 09:10:00,
2013-06-18 04:25:00,80.4,75.0,29.90,South,179,8.0,18.0,82,0.00,,,0.00,weatherlink.com 1.10,2013-06-18 09:25:00,
2013-06-18 04:40:00,80.2,74.0,29.90,South,181,8.0,20.0,81,0.00,,,0.00,weatherlink.com 1.10,2013-06-18 09:40:00,
2013-06-18 04:55:00,79.9,74.0,29.90,SSE,168,7.0,16.0,83,0.00,,,0.00,weatherlink.com 1.10,2013-06-18 09:55:00,
2013-06-18 05:10:00,79.6,74.0,29.89,South,188,10.0,19.0,84,0.00,,,0.00,weatherlink.com 1.10,2013-06-18 10:10:00,
2013-06-18 05:25:00,79.7,74.0,29.90,SSE,166,10.0,15.0,83,0.00,,,0.00,weatherlink.com 1.10,2013-06-18 10:25:00,
2013-06-18 05:40:00,79.7,75.0,29.90,SSW,198,11.0,16.0,84,0.00,,,0.00,weatherlink.com 1.10,2013-06-18 10:40:00,
2013-06-18 05:55:00,79.4,74.0,29.90,SSE,165,6.0,14.0,84,0.00,,,0.00,weatherlink.com 1.10,2013-06-18 10:55:00,
2013-06-18 06:10:00,79.5,74.0,29.91,South,190,10.0,14.0,84,0.00,,,0.00,weatherlink.com 1.10,2013-06-18 11:10:00,
2013-06-18 06:25:00,79.2,74.0,29.91,South,183,8.0,11.0,85,0.00,,,0.00,weatherlink.com 1.10,2013-06-18 11:25:00,
2013-06-18 06:40:00,79.4,74.0,29.91,SSW,192,9.0,12.0,84,0.00,,,0.00,weatherlink.com 1.10,2013-06-18 11:40:00,
2013-06-18 06:55:00,79.5,74.0,29.92,SSW,203,7.0,11.0,84,0.00,,,0.00,weatherlink.com 1.10,2013-06-18 11:55:00,
2013-06-18 07:10:00,79.7,75.0,29.92,South,183,8.0,12.0,84,0.00,,,0.00,weatherlink.com 1.10,2013-06-18 12:10:00,
2013-06-18 07:25:00,80.4,75.0,29.93,South,185,10.0,15.0,83,0.00,,,0.00,weatherlink.com 1.10,2013-06-18 12:25:00,
2013-06-18 07:40:00,80.9,75.0,29.93,South,180,8.0,14.0,81,0.00,,,0.00,weatherlink.com 1.10,2013-06-18 12:40:00,
2013-06-18 07:55:00,81.3,75.0,29.94,SSE,167,12.0,15.0,80,0.00,,,0.00,weatherlink.com 1.10,2013-06-18 12:55:00,
2013-06-18 08:10:00,81.7,75.0,29.94,South,177,10.0,14.0,79,0.00,,,0.00,weatherlink.com 1.10,2013-06-18 13:10:00,
2013-06-18 08:25:00,82.1,74.0,29.94,SSE,165,10.0,16.0,77,0.00,,,0.00,weatherlink.com 1.10,2013-06-18 13:25:00,
2013-06-18 08:40:00,82.3,75.0,29.94,South,171,11.0,19.0,78,0.00,,,0.00,weatherlink.com 1.10,2013-06-18 13:40:00,
2013-06-18 08:55:00,82.6,74.0,29.94,South,185,9.0,18.0,76,0.00,,,0.00,weatherlink.com 1.10,2013-06-18 13:55:00,
2013-06-18 09:10:00,83.5,75.0,29.94,SSE,155,8.0,15.0,76,0.00,,,0.00,weatherlink.com 1.10,2013-06-18 14:10:00,
2013-06-18 09:25:00,83.0,75.0,29.93,SSE,159,12.0,18.0,76,0.00,,,0.00,weatherlink.com 1.10,2013-06-18 14:25:00,
2013-06-18 09:40:00,83.5,75.0,29.93,SSE,164,14.0,18.0,75,0.00,,,0.00,weatherlink.com 1.10,2013-06-18 14:40:00,
2013-06-18 09:55:00,83.3,75.0,29.94,SSE,152,11.0,19.0,77,0.00,,,0.00,weatherlink.com 1.10,2013-06-18 14:55:00,
2013-06-18 10:11:00,84.0,75.0,29.94,SE,146,12.0,16.0,74,0.00,,,0.00,weatherlink.com 1.10,2013-06-18 15:11:00,
2013-06-18 10:26:00,83.6,75.0,29.94,SE,138,10.0,19.0,75,0.00,,,0.00,weatherlink.com 1.10,2013-06-18 15:26:00,
2013-06-18 10:41:00,84.4,76.0,29.95,SE,140,11.0,18.0,75,0.00,,,0.00,weatherlink.com 1.10,2013-06-18 15:41:00,
2013-06-18 10:56:00,84.3,75.0,29.94,SE,130,12.0,19.0,74,0.00,,,0.00,weatherlink.com 1.10,2013-06-18 15:56:00,
2013-06-18 11:11:00,84.9,75.0,29.94,SSE,163,13.0,19.0,73,0.00,,,0.00,weatherlink.com 1.10,2013-06-18 16:11:00,
2013-06-18 11:26:00,84.6,75.0,29.95,SSE,160,12.0,20.0,73,0.00,,,0.00,weatherlink.com 1.10,2013-06-18 16:26:00,
2013-06-18 11:41:00,85.1,76.0,29.95,SE,138,11.0,19.0,73,0.00,,,0.00,weatherlink.com 1.10,2013-06-18 16:41:00,
2013-06-18 11:56:00,85.5,76.0,29.95,SSE,154,11.0,19.0,73,0.00,,,0.00,weatherlink.com 1.10,2013-06-18 16:56:00,
2013-06-18 12:11:00,85.1,76.0,29.94,SE,140,16.0,20.0,73,0.00,,,0.00,weatherlink.com 1.10,2013-06-18 17:11:00,
2013-06-18 12:26:00,86.1,75.0,29.94,SE,136,19.0,22.0,70,0.00,,,0.00,weatherlink.com 1.10,2013-06-18 17:26:00,
2013-06-18 12:41:00,85.5,76.0,29.94,SSE,154,13.0,20.0,72,0.00,,,0.00,weatherlink.com 1.10,2013-06-18 17:41:00,
2013-06-18 12:56:00,86.4,76.0,29.93,SE,136,16.0,21.0,70,0.00,,,0.00,weatherlink.com 1.10,2013-06-18 17:56:00,
2013-06-18 13:11:00,85.3,75.0,29.93,ESE,106,12.0,20.0,71,0.00,,,0.00,weatherlink.com 1.10,2013-06-18 18:11:00,
2013-06-18 13:26:00,86.5,76.0,29.93,SSE,157,12.0,21.0,70,0.00,,,0.00,weatherlink.com 1.10,2013-06-18 18:26:00,
2013-06-18 13:41:00,86.1,76.0,29.92,SE,140,15.0,22.0,71,0.00,,,0.00,weatherlink.com 1.10,2013-06-18 18:41:00,
2013-06-18 13:56:00,85.5,76.0,29.92,SE,144,18.0,22.0,72,0.00,,,0.00,weatherlink.com 1.10,2013-06-18 18:56:00,
2013-06-18 14:11:00,85.5,76.0,29.92,ESE,117,12.0,23.0,73,0.00,,,0.00,weatherlink.com 1.10,2013-06-18 19:11:00,
2013-06-18 14:26:00,86.7,76.0,29.92,SSE,149,14.0,22.0,70,0.00,,,0.00,weatherlink.com 1.10,2013-06-18 19:26:00,
2013-06-18 14:41:00,86.6,76.0,29.92,SE,138,14.0,22.0,70,0.00,,,0.00,weatherlink.com 1.10,2013-06-18 19:41:00,
2013-06-18 14:56:00,86.9,76.0,29.91,SE,125,15.0,21.0,69,0.00,,,0.00,weatherlink.com 1.10,2013-06-18 19:56:00,
2013-06-18 15:11:00,86.1,76.0,29.91,SE,125,9.0,21.0,72,0.00,,,0.00,weatherlink.com 1.10,2013-06-18 20:11:00,
2013-06-18 15:26:00,86.8,76.0,29.90,SE,134,18.0,21.0,70,0.00,,,0.00,weatherlink.com 1.10,2013-06-18 20:26:00,
2013-06-18 15:41:00,86.0,76.0,29.89,SE,140,18.0,21.0,71,0.00,,,0.00,weatherlink.com 1.10,2013-06-18 20:41:00,
2013-06-18 15:56:00,86.6,76.0,29.89,SE,126,11.0,20.0,70,0.00,,,0.00,weatherlink.com 1.10,2013-06-18 20:56:00,
2013-06-18 16:11:00,86.7,76.0,29.89,ESE,104,16.0,21.0,70,0.00,,,0.00,weatherlink.com 1.10,2013-06-18 21:11:00,
2013-06-18 16:26:00,86.0,76.0,29.88,East,100,20.0,24.0,72,0.00,,,0.00,weatherlink.com 1.10,2013-06-18 21:26:00,
2013-06-18 16:41:00,85.7,76.0,29.88,ESE,111,12.0,24.0,73,0.00,,,0.00,weatherlink.com 1.10,2013-06-18 21:41:00,
2013-06-18 16:56:00,85.9,76.0,29.87,SE,139,10.0,22.0,73,0.00,,,0.00,weatherlink.com 1.10,2013-06-18 21:56:00,
2013-06-18 17:11:00,85.6,76.0,29.87,ESE,117,18.0,23.0,73,0.00,,,0.00,weatherlink.com 1.10,2013-06-18 22:11:00,
2013-06-18 17:26:00,85.3,76.0,29.87,SE,136,16.0,21.0,74,0.00,,,0.00,weatherlink.com 1.10,2013-06-18 22:26:00,
2013-06-18 17:41:00,85.3,76.0,29.86,ESE,119,16.0,21.0,74,0.00,,,0.00,weatherlink.com 1.10,2013-06-18 22:41:00,
2013-06-18 17:56:00,85.2,76.0,29.85,SE,133,13.0,21.0,74,0.00,,,0.00,weatherlink.com 1.10,2013-06-18 22:56:00,
2013-06-18 18:11:00,84.8,76.0,29.85,SE,133,19.0,21.0,75,0.00,,,0.00,weatherlink.com 1.10,2013-06-18 23:11:00,
2013-06-18 18:26:00,84.6,76.0,29.85,SSE,150,15.0,21.0,76,0.00,,,0.00,weatherlink.com 1.10,2013-06-18 23:26:00,
2013-06-18 18:41:00,84.6,76.0,29.85,SSE,148,10.0,18.0,76,0.00,,,0.00,weatherlink.com 1.10,2013-06-18 23:41:00,
2013-06-18 18:56:00,84.0,76.0,29.85,ESE,117,15.0,20.0,76,0.00,,,0.00,weatherlink.com 1.10,2013-06-18 23:56:00,
2013-06-18 19:11:00,83.7,76.0,29.85,SE,146,15.0,23.0,77,0.00,,,0.00,weatherlink.com 1.10,2013-06-19 00:11:00,
2013-06-18 19:26:00,83.4,76.0,29.85,SE,132,19.0,24.0,78,0.00,,,0.00,weatherlink.com 1.10,2013-06-19 00:26:00,
2013-06-18 19:41:00,83.1,76.0,29.86,SE,144,13.0,23.0,79,0.00,,,0.00,weatherlink.com 1.10,2013-06-19 00:41:00,
2013-06-18 19:56:00,82.8,76.0,29.86,SSE,158,12.0,20.0,80,0.00,,,0.00,weatherlink.com 1.10,2013-06-19 00:56:00,
2013-06-18 20:11:00,82.4,76.0,29.87,SE,136,10.0,20.0,80,0.00,,,0.00,weatherlink.com 1.10,2013-06-19 01:11:00,
2013-06-18 20:26:00,82.3,76.0,29.87,SE,141,16.0,21.0,81,0.00,,,0.00,weatherlink.com 1.10,2013-06-19 01:26:00,
2013-06-18 20:41:00,82.0,76.0,29.87,ESE,120,8.0,18.0,82,0.00,,,0.00,weatherlink.com 1.10,2013-06-19 01:41:00,
2013-06-18 20:56:00,82.0,76.0,29.88,SE,140,10.0,21.0,81,0.00,,,0.00,weatherlink.com 1.10,2013-06-19 01:56:00,
2013-06-18 21:11:00,81.9,76.0,29.88,SSE,152,14.0,18.0,82,0.00,,,0.00,weatherlink.com 1.10,2013-06-19 02:11:00,
2013-06-18 21:26:00,81.8,76.0,29.88,SE,144,10.0,22.0,82,0.00,,,0.00,weatherlink.com 1.10,2013-06-19 02:26:00,
2013-06-18 21:41:00,81.7,76.0,29.89,ESE,121,15.0,20.0,83,0.00,,,0.00,weatherlink.com 1.10,2013-06-19 02:41:00,
2013-06-18 21:56:00,81.7,76.0,29.89,SSE,155,10.0,18.0,82,0.00,,,0.00,weatherlink.com 1.10,2013-06-19 02:56:00,
2013-06-18 22:11:00,81.7,76.0,29.89,SE,146,15.0,22.0,82,0.00,,,0.00,weatherlink.com 1.10,2013-06-19 03:11:00,
2013-06-18 22:26:00,81.6,76.0,29.90,SSE,150,16.0,19.0,83,0.00,,,0.00,weatherlink.com 1.10,2013-06-19 03:26:00,
2013-06-18 22:41:00,81.6,76.0,29.90,SE,140,10.0,21.0,82,0.00,,,0.00,weatherlink.com 1.10,2013-06-19 03:41:00,
2013-06-18 22:56:00,81.5,76.0,29.91,South,171,11.0,19.0,82,0.00,,,0.00,weatherlink.com 1.10,2013-06-19 03:56:00,
2013-06-18 23:11:00,81.4,75.0,29.91,SSE,163,12.0,19.0,82,0.00,,,0.00,weatherlink.com 1.10,2013-06-19 04:11:00,
2013-06-18 23:26:00,81.4,75.0,29.91,SE,126,12.0,20.0,82,0.00,,,0.00,weatherlink.com 1.10,2013-06-19 04:26:00,
2013-06-18 23:41:00,81.3,75.0,29.91,SE,138,12.0,22.0,81,0.00,,,0.00,weatherlink.com 1.10,2013-06-19 04:41:00,
2013-06-18 23:56:00,81.3,75.0,29.91,SE,140,14.0,22.0,80,0.00,,,0.00,weatherlink.com 1.10,2013-06-19 04:56:00,